{"data":{"norad_id":57519,"intl_designator":"2023-116A","name":"HJ-2F","alt_names":[],"object_type":"PAYLOAD","status":"ACTIVE","operator":null,"country":"PRC","launch_date":"2023-08-08","launch_site_code":"TAISC","launch_vehicle":null,"mission":null,"orbit_class":"UNKNOWN","rcs_meters":null,"size_class":null,"mass_kg":null,"dimensions":null,"purposes":[],"wikipedia_slug":null,"has_3d_model":false,"image_url":null,"decayed_at":null,"tle_current":{"epoch":"2026-05-25T04:16:27.613632Z","epoch_age_seconds":63212,"freshness":"FRESH","line1":"1 57519U 23116A   26145.17809738  .00006740  00000+0  29831-3 0  9993","line2":"2 57519  97.3849 150.8042 0010474 117.6453 242.5848 15.21938425155253","mean_motion":15.21938425,"eccentricity":0.0010474,"inclination_deg":97.3849,"raan_deg":150.8042,"arg_perigee_deg":117.6453,"mean_anomaly_deg":242.5848,"bstar":0.00029831,"rev_number":15525,"period_min":94.616180020555,"perigee_km":492.79000777023,"apogee_km":507.19831692913,"semimajor_km":6878.1311623497,"source":"CELESTRAK","updated_at":"2026-05-25T13:38:00.111100Z"}}}